Погода в Азее

Россия / Иркутская область     54°30′32″N   100°45′57″E
темп.,
°C
ветер,
м/с
пор.,
м/с
влажн.,
%
обл.,
%
осадки,
мм/ч
давл.,
гПа
погр.,
м
9 марта, вт
вт923:00−8юв5148893 0.0 1019434
02:00−8юв4119396 0.0 1017302
05:00−11ююв239677 0.0 101455
08:00−11ю229380 0.0 101533
11:00−4ю2288100 0.0 1015112
14:000ююз1410083 0.0 1016195
17:00−2сз71278100 0.3 10201000
20:00−7зсз2384100 0.3 102632
10 марта, ср
ср1023:00−10з118997 0.0 102921
02:00−13ю229159 0.0 103020
05:00−13юв229131 0.0 102921
08:00−12юв369265 0.0 1028145
11:00−6ююв598996 0.0 1024412
14:00−2ююв369273 0.0 1020382
17:00−1юв349338 0.0 1019282
20:00−6юв229532 0.0 102123
11 марта, чт
чт1123:00−8ююв22960 0.0 102221
02:00−9ююв22970 0.0 102121
05:00−9юв229667 0.0 102023
08:00−8юв389955 0.0 1019203
11:00−4юв488761 0.0 1014315
14:000ююв479764 0.0 1011285
17:00+1ююв2410059 0.0 1012129
20:00−2ююв229880 0.0 101534
12 марта, пт
пт1223:00−3вюв1286100 0.0 101621
02:00−5всв1191100 0.0 101621
05:00−2ссз2997100 0.3 1018342
08:00−2с2598100 1.2 1020279
11:00−2ссв129298 0.5 1020330
14:00−1юв469794 0.5 1017553
17:000юв599482 0.0 1014456
20:00−2юв4119491 0.0 1013361
13 марта, сб
сб1323:00−2с21197100 1.5 1013890
02:00−5с61193100 2.3 1013562
05:00−8ссз2393100 0.1 101394
08:00−9ссз2588100 0.1 1014264
11:00−8с2593100 0.8 1013511
14:00−7с3592100 2.3 1012592
17:00−9ссз71191100 0.7 10171100
20:00−15сз51677100 1.1 10241681